sat.trackr.live / text

‹ back to catalog

STARLINK-36813

NORAD 67892 · 2026-035P

PAYLOAD ACTIVE UNKNOWN

§ Identity

Operator
Country
US
Launch date
2026-02-21
Launch site
AFWTR
Launch vehicle
Mass (kg)
RCS (m²)

Purposes: comms

External: N2YO · Heavens-Above · Gunter

§ Orbital elements

Epoch: 2026-09-17T19:11:53.056896Z

Period
93.91 min
Inclination
97.2834°
Eccentricity
0.0002312
Mean motion
15.33433135 rev/d
Perigee alt
464.0 km
Apogee alt
467.2 km
Semi-major
6,843.7 km
B*
3.9824e-4
RAAN
192.7574°
Arg perigee
103.2448°
Mean anomaly
256.9052°
Rev number
3,343

§ Raw data

STARLINK-368131 67892U 26035P   26260.79991964  .00012799  00000+0  39824-3 0  99942 67892  97.2834 192.7574 0002312 103.2448 256.9052 15.33433135 33435

JSON: /api/v1/satellites/67892 · /tle

For live sub-satellite position, see the globe view (requires WebGL).

§ Visibility from observer

Set your observer location to see the next 7 days of passes ≥ 10°. The values pass through the URL so the page stays shareable.

No JS? Fill the form by hand. The geolocation button needs JavaScript.